Location: Thompson
(55.7500°N, 97.8670°W)
Time: 14:08:09
(UTC-05:00)

Amateur Radio Satellites - All Passes

Search period start: 01 September 2014 13:38
Search period end: 02 September 2014 13:38
Location: Thompson, 55.7500°N, 97.8670°W

Satellite Date Start Highest point End Downlink Frequencies (MHz)
Time Altitude Azimuth
Gurwin Techsat 1B 01 Sep 13:38:22 13:42:30 24° 53° (NE) 13:46:39 435.225 FM
RS-15 01 Sep 13:40:44 13:51:26 55° 8° (N) 14:02:22 29.354 - 29.394 USB, Beacon 29.352 USB
SO-50 01 Sep 13:44:32 13:47:33 17° 246° (WSW) 13:50:34 436.795 FM
AO-Echo 01 Sep 13:45:40 13:50:19 43° 64° (ENE) 13:54:52 ?
UOSAT-12 01 Sep 13:52:44 13:57:29 71° 226° (SW) 14:02:10 437.025 FM, 437.400 FM
MaSat-1 01 Sep 13:52:50 13:57:36 43° 116° (ESE) 14:02:28 437.345 MHz
FUNcube-1 01 Sep 13:58:47 14:01:52 18° 306° (NW) 14:04:58 145.950 - 145.970 MHz USB
Oscar 16 01 Sep 14:07:17 14:12:28 75° 255° (WSW) 14:17:42 437.025 USB, Beacon 2401.1428
ITAMSAT 1 01 Sep 14:08:38 14:13:44 61° 67° (ENE) 14:18:51 435.822 SSB
Uribyol 2 01 Sep 14:18:04 14:23:12 74° 70° (ENE) 14:28:23 436.500 FM
ISS 01 Sep 14:24:14 14:27:23 40° 184° (S) 14:30:32 145.800 FM
TMSAT-1 01 Sep 14:27:44 14:32:34 37° 60° (ENE) 14:37:25 436.925 FM
AO-27 01 Sep 14:38:06 14:43:18 84° 253° (WSW) 14:48:32 436.795 MHz FM
Uosat F 01 Sep 14:40:05 14:42:58 16° 46° (NE) 14:45:52 435.120 FM
HO-68 01 Sep 14:40:48 14:44:24 15° 335° (NNW) 14:48:00 435.675 MHz FM
AO-7 01 Sep 14:45:29 14:52:52 38° 45° (NE) 15:00:16 29.400 - 29.500 MHz
JAS-1B 01 Sep 14:49:52 14:59:27 82° 253° (WSW) 15:07:43 435.800 - 435.900 CW/SSB
Oscar 19 01 Sep 15:12:33 15:16:57 28° 268° (W) 15:21:24 437.125 CW, 437.150 USB
Gurwin Techsat 1B 01 Sep 15:16:38 15:21:57 85° 254° (WSW) 15:27:19 435.225 FM
AO-Echo 01 Sep 15:24:39 15:29:13 36° 264° (W) 15:33:41 ?
MaSat-1 01 Sep 15:29:38 15:34:38 51° 317° (NW) 15:39:38 437.345 MHz
UOSAT-12 01 Sep 15:34:00 15:36:53 16° 247° (WSW) 15:39:46 437.025 FM, 437.400 FM
ITAMSAT 1 01 Sep 15:49:13 15:53:37 28° 268° (W) 15:58:03 435.822 SSB
Oscar 16 01 Sep 15:49:48 15:52:45 15° 276° (W) 15:55:44 437.025 USB, Beacon 2401.1428
RS-15 01 Sep 15:54:09 16:05:12 83° 39° (NE) 16:16:35 29.354 - 29.394 USB, Beacon 29.352 USB
Uribyol 2 01 Sep 15:59:13 16:03:15 23° 270° (W) 16:07:19 436.500 FM
ISS 01 Sep 16:00:56 16:03:39 23° 204° (SSW) 16:06:21 145.800 FM
TMSAT-1 01 Sep 16:07:19 16:12:26 48° 261° (W) 16:17:35 436.925 FM
Uosat F 01 Sep 16:15:58 16:20:54 61° 67° (ENE) 16:25:51 435.120 FM
AO-27 01 Sep 16:20:18 16:23:39 17° 274° (W) 16:27:00 436.795 MHz FM
Sapphire 01 Sep 16:24:44 16:27:07 13° 103° (ESE) 16:29:31 437.095 MHz 1200 baud AX-25 AFSK
AO-7 01 Sep 16:36:43 16:45:05 83° 249° (WSW) 16:53:28 29.400 - 29.500 MHz
JAS-2 01 Sep 16:42:15 16:46:27 22° 52° (NE) 16:50:28 435.800 - 435.900 CW/SSB, 435.910 FM
JAS-1B 01 Sep 16:43:21 16:50:59 27° 274° (W) 16:57:55 435.800 - 435.900 CW/SSB
PCSat 01 Sep 16:51:54 16:55:57 22° 110° (ESE) 17:00:01 145.825 MHz
Gurwin Techsat 1B 01 Sep 16:59:14 17:02:45 18° 274° (W) 17:06:18 435.225 FM
MaSat-1 01 Sep 17:08:46 17:12:45 22° 339° (NNW) 17:16:38 437.345 MHz
OPAL 01 Sep 17:37:18 17:41:58 32° 97° (E) 17:46:36 ?
Hamsat 01 Sep 17:41:49 17:45:55 42° 66° (ENE) 17:50:03 145.90 MHz
Uosat F 01 Sep 17:55:53 18:00:05 27° 268° (W) 18:04:19 435.120 FM
Sapphire 01 Sep 18:04:11 18:09:28 58° 124° (SE) 18:14:49 437.095 MHz 1200 baud AX-25 AFSK
RS-15 01 Sep 18:06:46 18:16:51 44° 246° (WSW) 18:27:17 29.354 - 29.394 USB, Beacon 29.352 USB
HO-68 01 Sep 18:10:20 18:14:11 16° 27° (NNE) 18:18:02 435.675 MHz FM
JAS-2 01 Sep 18:25:17 18:31:06 88° 253° (WSW) 18:36:26 435.800 - 435.900 CW/SSB, 435.910 FM
AO-7 01 Sep 18:32:31 18:39:09 26° 272° (W) 18:45:48 29.400 - 29.500 MHz
PCSat 01 Sep 18:33:17 18:38:43 87° 131° (SE) 18:44:12 145.825 MHz
SO-67 01 Sep 18:46:06 18:49:05 27° 64° (ENE) 18:52:05 435.3500 MHz FM
MaSat-1 01 Sep 18:48:11 18:51:28 17° 3° (N) 18:54:38 437.345 MHz
OPAL 01 Sep 19:16:01 19:21:08 56° 297° (WNW) 19:26:14 ?
Hamsat 01 Sep 19:18:07 19:22:00 31° 266° (W) 19:25:57 145.90 MHz
STRAND 1 01 Sep 19:24:38 19:28:34 22° 89° (E) 19:32:29 ?
UKube-1 01 Sep 19:41:46 19:42:38 11° 45° (NE) 19:43:30 145.840 MHz, 145.915 MHz
Sapphire 01 Sep 19:47:55 19:53:07 45° 327° (NNW) 19:58:22 437.095 MHz 1200 baud AX-25 AFSK
HO-68 01 Sep 19:53:41 20:00:06 38° 52° (NE) 20:06:33 435.675 MHz FM
JAS-2 01 Sep 20:13:05 20:16:59 18° 273° (W) 20:20:41 435.800 - 435.900 CW/SSB, 435.910 FM
PCSat 01 Sep 20:17:46 20:22:44 35° 335° (NNW) 20:27:44 145.825 MHz
SO-67 01 Sep 20:18:56 20:22:05 32° 264° (W) 20:25:16 435.3500 MHz FM
RS-15 01 Sep 20:23:10 20:25:56 11° 271° (W) 20:28:43 29.354 - 29.394 USB, Beacon 29.352 USB
MaSat-1 01 Sep 20:25:57 20:30:06 25° 27° (NNE) 20:33:56 437.345 MHz
OPAL 01 Sep 20:55:59 20:59:05 16° 318° (NW) 21:02:11 ?
STRAND 1 01 Sep 21:03:14 21:08:21 76° 290° (WNW) 21:13:27 ?
UKube-1 01 Sep 21:13:43 21:17:52 46° 65° (ENE) 21:22:02 145.840 MHz, 145.915 MHz
Oscar 11 01 Sep 21:17:47 21:21:43 34° 63° (ENE) 21:25:40 145.825 FM, Beacon 2401.500 USB
Sapphire 01 Sep 21:33:16 21:37:48 26° 352° (N) 21:42:20 437.095 MHz 1200 baud AX-25 AFSK
HO-68 01 Sep 21:40:21 21:47:29 71° 254° (WSW) 21:54:39 435.675 MHz FM
FUNcube-1 01 Sep 21:49:42 21:53:25 30° 61° (ENE) 21:57:14 145.950 - 145.970 MHz USB
MaSat-1 01 Sep 22:03:00 22:07:55 77° 51° (NE) 22:12:13 437.345 MHz
PCSat 01 Sep 22:03:08 22:07:37 25° 0° (N) 22:12:05 145.825 MHz
KITSAT 1 01 Sep 22:33:09 22:37:32 16° 99° (E) 22:41:55 435.175 FM
STRAND 1 01 Sep 22:43:22 22:46:50 19° 311° (NW) 22:50:18 ?
UKube-1 01 Sep 22:50:29 22:54:16 29° 265° (W) 22:58:05 145.840 MHz, 145.915 MHz
Oscar 11 01 Sep 22:53:47 22:57:53 40° 263° (W) 23:02:01 145.825 FM, Beacon 2401.500 USB
Sapphire 01 Sep 23:18:02 23:22:47 29° 18° (NNE) 23:27:32 437.095 MHz 1200 baud AX-25 AFSK
Saudisat 1A 01 Sep 23:24:57 23:29:03 39° 126° (SE) 23:33:11 436.775 MHz
FUNcube-1 01 Sep 23:25:39 23:29:43 44° 262° (W) 23:33:54 145.950 - 145.970 MHz USB
HO-68 01 Sep 23:31:47 23:36:33 19° 277° (W) 23:41:20 435.675 MHz FM
MaSat-1 01 Sep 23:40:48 23:44:20 21° 254° (WSW) 23:47:33 437.345 MHz
PCSat 01 Sep 23:47:28 23:52:28 36° 26° (NNE) 23:57:28 145.825 MHz
AO-40 02 Sep 00:01:33 03:51:57 23° 154° (SSE) 05:28:18 Beacon 2401.320
KITSAT 1 02 Sep 00:23:24 00:31:12 56° 122° (ESE) 00:39:03 435.175 FM
Sapphire 02 Sep 01:01:42 01:07:08 66° 42° (NE) 01:12:33 437.095 MHz 1200 baud AX-25 AFSK
Saudisat 1A 02 Sep 01:04:14 01:08:35 54° 327° (NNW) 01:12:57 436.775 MHz
PCSat 02 Sep 01:31:00 01:36:29 86° 229° (SW) 01:41:55 145.825 MHz
Oscar 19 02 Sep 01:37:43 01:39:59 13° 82° (E) 01:42:15 437.125 CW, 437.150 USB
Oscar 10/S400 02 Sep 02:10:38 03:00:03 34° 209° (SSW) 07:43:53 145.825 - 145.975 CW/USB, Beacon 145.810 USB
Oscar 16 02 Sep 02:11:46 02:15:56 24° 90° (E) 02:20:03 437.025 USB, Beacon 2401.1428
ITAMSAT 1 02 Sep 02:15:37 02:17:42 12° 82° (E) 02:19:47 435.822 SSB
KITSAT 1 02 Sep 02:18:37 02:26:40 63° 326° (NNW) 02:34:44 435.175 FM
Uribyol 2 02 Sep 02:24:16 02:27:17 15° 85° (E) 02:30:18 436.500 FM
JAS-1B 02 Sep 02:29:16 02:34:01 19° 80° (E) 02:38:19 435.800 - 435.900 CW/SSB
AO-27 02 Sep 02:44:05 02:47:57 21° 88° (E) 02:51:47 436.795 MHz FM
Saudisat 1A 02 Sep 02:45:08 02:48:58 28° 351° (N) 02:52:48 436.775 MHz
Sapphire 02 Sep 02:45:28 02:50:20 34° 244° (WSW) 02:55:10 437.095 MHz 1200 baud AX-25 AFSK
Oscar 19 02 Sep 03:15:12 03:20:25 64° 103° (ESE) 03:25:34 437.125 CW, 437.150 USB
PCSat 02 Sep 03:15:13 03:19:14 21° 250° (WSW) 03:23:15 145.825 MHz
OPAL 02 Sep 03:21:55 03:26:15 28° 52° (NE) 03:30:38 ?
AO-Echo 02 Sep 03:23:36 03:28:03 40° 98° (E) 03:32:30 ?
Gurwin Techsat 1B 02 Sep 03:25:38 03:29:49 23° 89° (E) 03:34:00 435.225 FM
Oscar 16 02 Sep 03:50:37 03:55:50 73° 290° (WNW) 04:01:01 437.025 USB, Beacon 2401.1428
ITAMSAT 1 02 Sep 03:53:08 03:58:18 62° 103° (ESE) 04:03:27 435.822 SSB
Uribyol 2 02 Sep 04:02:27 04:07:41 76° 105° (ESE) 04:12:53 436.500 FM
SO-50 02 Sep 04:05:23 04:09:15 29° 121° (ESE) 04:13:13 436.795 FM
TMSAT-1 02 Sep 04:15:10 04:20:10 40° 97° (E) 04:25:08 436.925 FM
KITSAT 1 02 Sep 04:15:56 04:23:31 41° 354° (N) 04:31:07 435.175 FM
Uosat F 02 Sep 04:18:44 04:19:39 10° 81° (E) 04:20:34 435.120 FM
JAS-1B 02 Sep 04:18:58 04:26:11 81° 106° (ESE) 04:32:15 435.800 - 435.900 CW/SSB
AO-27 02 Sep 04:22:54 04:28:07 82° 289° (WNW) 04:33:19 436.795 MHz FM
Saudisat 1A 02 Sep 04:25:42 04:29:39 30° 15° (NNE) 04:33:35 436.775 MHz
AO-7 02 Sep 04:30:24 04:36:30 22° 85° (E) 04:42:33 29.400 - 29.500 MHz
Oscar 19 02 Sep 04:55:01 04:59:28 29° 303° (WNW) 05:03:54 437.125 CW, 437.150 USB
OPAL 02 Sep 04:59:41 05:04:47 69° 253° (WSW) 05:09:59 ?
AO-Echo 02 Sep 05:02:32 05:06:52 37° 298° (WNW) 05:11:10 ?
Gurwin Techsat 1B 02 Sep 05:05:03 05:10:23 76° 290° (WNW) 05:15:41 435.225 FM
STRAND 1 02 Sep 05:11:21 05:14:27 17° 47° (NE) 05:17:33 ?
Oscar 16 02 Sep 05:30:56 05:34:26 19° 311° (NW) 05:37:55 437.025 USB, Beacon 2401.1428
ITAMSAT 1 02 Sep 05:33:05 05:37:32 30° 303° (WNW) 05:41:59 435.822 SSB
Uribyol 2 02 Sep 05:42:32 05:46:44 26° 306° (NW) 05:50:56 436.500 FM
SO-50 02 Sep 05:44:57 05:49:30 71° 323° (NW) 05:54:11 436.795 FM
UOSAT-12 02 Sep 05:50:55 05:54:51 28° 120° (ESE) 05:58:52 437.025 FM, 437.400 FM
Uosat F 02 Sep 05:54:39 05:59:36 56° 102° (ESE) 06:04:31 435.120 FM
TMSAT-1 02 Sep 05:55:10 06:00:12 44° 297° (WNW) 06:05:12 436.925 FM
AO-27 02 Sep 06:03:16 06:06:59 20° 310° (NW) 06:10:42 436.795 MHz FM
Saudisat 1A 02 Sep 06:05:26 06:09:53 71° 38° (NE) 06:14:18 436.775 MHz
JAS-1B 02 Sep 06:10:01 06:16:07 30° 313° (NW) 06:21:28 435.800 - 435.900 CW/SSB
KITSAT 1 02 Sep 06:12:50 06:20:41 49° 22° (NNE) 06:28:30 435.175 FM
AO-7 02 Sep 06:22:28 06:30:49 74° 108° (ESE) 06:39:05 29.400 - 29.500 MHz
RS-15 02 Sep 06:32:30 06:38:52 18° 95° (E) 06:45:11 29.354 - 29.394 USB, Beacon 29.352 USB
OPAL 02 Sep 06:42:03 06:44:40 14° 274° (W) 06:47:18 ?
Gurwin Techsat 1B 02 Sep 06:45:56 06:49:37 19° 311° (NW) 06:53:18 435.225 FM
STRAND 1 02 Sep 06:47:46 06:52:48 65° 68° (ENE) 06:57:52 ?
Hamsat 02 Sep 06:55:54 06:59:48 30° 94° (E) 07:03:38 145.90 MHz
JAS-2 02 Sep 07:10:33 07:15:27 39° 97° (E) 07:20:35 435.800 - 435.900 CW/SSB, 435.910 FM
SO-50 02 Sep 07:26:37 07:30:45 31° 346° (NNW) 07:35:00 436.795 FM
UOSAT-12 02 Sep 07:29:59 07:34:41 75° 322° (NW) 07:39:27 437.025 FM, 437.400 FM
Uosat F 02 Sep 07:33:49 07:38:12 31° 302° (WNW) 07:42:34 435.120 FM
SO-67 02 Sep 07:36:17 07:37:48 12° 87° (E) 07:39:17 435.3500 MHz FM
TMSAT-1 02 Sep 07:36:45 07:38:56 13° 319° (NW) 07:41:08 436.925 FM
Saudisat 1A 02 Sep 07:45:25 07:49:10 28° 239° (WSW) 07:52:55 436.775 MHz
JAS-1B 02 Sep 08:01:28 08:04:23 13° 340° (NNW) 08:07:08 435.800 - 435.900 CW/SSB
KITSAT 1 02 Sep 08:08:40 08:16:48 83° 229° (SW) 08:24:52 435.175 FM
AO-7 02 Sep 08:15:39 08:23:13 42° 312° (NW) 08:30:46 29.400 - 29.500 MHz
STRAND 1 02 Sep 08:28:13 08:32:26 26° 268° (W) 08:36:41 ?
Hamsat 02 Sep 08:31:45 08:35:54 43° 294° (WNW) 08:40:00 145.90 MHz
RS-15 02 Sep 08:38:01 08:48:37 57° 121° (ESE) 08:59:10 29.354 - 29.394 USB, Beacon 29.352 USB
JAS-2 02 Sep 08:55:49 09:00:43 43° 297° (WNW) 09:05:51 435.800 - 435.900 CW/SSB, 435.910 FM
HO-68 02 Sep 09:00:49 09:05:09 17° 82° (E) 09:09:28 435.675 MHz FM
SO-67 02 Sep 09:07:51 09:11:21 77° 286° (WNW) 09:14:48 435.3500 MHz FM
SO-50 02 Sep 09:08:19 09:12:27 30° 10° (N) 09:16:40 436.795 FM
UOSAT-12 02 Sep 09:11:13 09:15:29 33° 345° (NNW) 09:19:48 437.025 FM, 437.400 FM
JAS-1B 02 Sep 09:51:03 09:51:45 10° 7° (N) 09:52:27 435.800 - 435.900 CW/SSB
KITSAT 1 02 Sep 10:04:42 10:11:13 28° 252° (WSW) 10:17:43 435.175 FM
AO-7 02 Sep 10:08:37 10:14:02 20° 337° (NNW) 10:19:26 29.400 - 29.500 MHz
UKube-1 02 Sep 10:30:38 10:34:27 29° 95° (E) 10:38:15 145.840 MHz, 145.915 MHz
Oscar 11 02 Sep 10:33:54 10:37:29 24° 92° (E) 10:41:02 145.825 FM, Beacon 2401.500 USB
SO-67 02 Sep 10:42:39 10:43:48 11° 306° (NW) 10:44:56 435.3500 MHz FM
JAS-2 02 Sep 10:43:01 10:44:41 12° 320° (NW) 10:46:21 435.800 - 435.900 CW/SSB, 435.910 FM
HO-68 02 Sep 10:47:14 10:54:22 64° 104° (ESE) 11:01:28 435.675 MHz FM
SO-50 02 Sep 10:49:09 10:53:50 59° 34° (NNE) 10:58:36 436.795 FM
RS-15 02 Sep 10:49:55 11:00:52 71° 330° (NNW) 11:11:55 29.354 - 29.394 USB, Beacon 29.352 USB
UOSAT-12 02 Sep 10:52:35 10:56:47 30° 9° (N) 11:00:58 437.025 FM, 437.400 FM
FUNcube-1 02 Sep 11:07:08 11:10:48 24° 91° (E) 11:14:29 145.950 - 145.970 MHz USB
Oscar 19 02 Sep 11:26:20 11:27:44 11° 39° (NE) 11:29:08 437.125 CW, 437.150 USB
JAS-1B 02 Sep 11:34:02 11:39:24 18° 34° (NNE) 11:44:18 435.800 - 435.900 CW/SSB
Oscar 16 02 Sep 11:59:16 12:02:34 17° 47° (NE) 12:05:54 437.025 USB, Beacon 2401.1428
AO-7 02 Sep 11:59:32 12:03:54 16° 5° (N) 12:08:16 29.400 - 29.500 MHz
ISS 02 Sep 11:59:47 12:02:38 26° 159° (SSE) 12:05:28 145.800 FM
ITAMSAT 1 02 Sep 12:05:00 12:06:31 11° 39° (NE) 12:08:02 435.822 SSB
UKube-1 02 Sep 12:06:41 12:10:51 45° 295° (WNW) 12:14:59 145.840 MHz, 145.915 MHz
Oscar 11 02 Sep 12:09:41 12:14:00 56° 291° (WNW) 12:18:16 145.825 FM, Beacon 2401.500 USB
Uribyol 2 02 Sep 12:13:16 12:15:33 13° 42° (NE) 12:17:50 436.500 FM
SO-50 02 Sep 12:29:54 12:34:20 39° 235° (SW) 12:38:48 436.795 FM
AO-27 02 Sep 12:32:45 12:35:53 16° 46° (NE) 12:39:01 436.795 MHz FM
UOSAT-12 02 Sep 12:33:05 12:37:47 56° 32° (NNE) 12:42:26 437.025 FM, 437.400 FM
HO-68 02 Sep 12:35:17 12:41:52 41° 306° (NW) 12:48:26 435.675 MHz FM
FUNcube-1 02 Sep 12:43:05 12:47:33 61° 290° (WNW) 12:52:04 145.950 - 145.970 MHz USB
Oscar 19 02 Sep 13:01:02 13:05:48 39° 61° (ENE) 13:10:37 437.125 CW, 437.150 USB
RS-15 02 Sep 13:04:19 13:15:00 54° 2° (N) 13:25:53 29.354 - 29.394 USB, Beacon 29.352 USB
AO-Echo 02 Sep 13:06:39 13:10:31 24° 56° (NE) 13:14:20 ?
Gurwin Techsat 1B 02 Sep 13:16:40 13:20:09 18° 48° (NE) 13:23:39 435.225 FM
JAS-1B 02 Sep 13:19:42 13:28:16 45° 57° (ENE) 13:35:42 435.800 - 435.900 CW/SSB
